Regional Weather Roundup
Issued by NWS

Home | Current Version | Previous Version | Graphics & Text | Print | Product List | Glossary On
Versions: 1 2 3 4 5 6 7 8 9 10 11 12 13 14 15 16 17 18 19 20 21 22 23 24 25 26 27 28 29 30 31 32 33 34 35 36 37 38 39 40 41 42 43 44 45 46 47 48 49 50
711
ASUS44 KMEG 160410
RWRTN
TENNESSEE HOURLY STATE WEATHER ROUNDUP
NATIONAL WEATHER SERVICE MEMPHIS TN
1000 PM CST SUN JAN 15 2017

TNZ002-004-019-021-049-052-054-088>092-160500-
WEST TENNESSEE

CITY           SKY/WX    TMP DP  RH WIND       PRES   REMARKS
MEMPHIS INTL   CLOUDY    53  52  96 E7        30.17F VSB 1
NWS MEMPHIS      N/A     52 N/A N/A MISG        N/A
JACKSON        CLOUDY    51  51 100 E6        30.20F
DYERSBURG      CLOUDY    46  45  93 E8        30.19F VSB 1
UNION CITY     CLOUDY   N/A N/A N/A CALM      30.21F
PARIS          CLOUDY    43  43 100 CALM      30.22F
HUNTINGDON     CLOUDY    46  46 100 E6        30.22S FOG
$$

TNZ008-025-027-028-033-062-065-066-160500-
NORTH MIDDLE TENNESSEE

CITY           SKY/WX    TMP DP  RH WIND       PRES   REMARKS
NASHVILLE      CLOUDY    52  49  89 NE5       30.26F
PORTLAND       FOG       45  45 100 CALM      30.27S VSB 0
CLARKSVILLE    FOG       45  44  97 E3        30.26F VSB 1/2
SMYRNA         CLOUDY    51  49  92 CALM      30.27S
GALLATIN       CLOUDY    50  48  93 N5        30.29S FOG
CROSSVILLE     CLOUDY    51  50  96 CALM      30.28R
$$

TNZ061-075-076-078-094-096-097-160500-
SOUTH MIDDLE TENNESSEE

CITY           SKY/WX    TMP DP  RH WIND       PRES   REMARKS
FAYETTEVILLE   PTCLDY    57  55  94 E3        30.23S
TULLAHOMA      CLEAR     54  52  94 CALM      30.24F
WINCHESTER     CLEAR     54  52  94 CALM      30.25S
MCMINNVILLE    CLOUDY    55  55 100 CALM      30.25S
COLUMBIA       CLEAR    N/A N/A N/A NE3       30.22S
SHELBYVILLE    PTCLDY    54  54 100 N3        30.25S
$$

TNZ017-018-042-046-047-160500-
NORTHEAST TENNESSEE

CITY           SKY/WX    TMP DP  RH WIND       PRES   REMARKS
TRI CITIES     CLOUDY    54  53  97 CALM      30.28F
ELIZABETHTON   CLOUDY    55  55 100 CALM      30.28S FOG
$$

TNZ012-013-036-069-073-074-160500-
CENTRAL EAST TENNESSEE

CITY           SKY/WX    TMP DP  RH WIND       PRES   REMARKS
KNOXVILLE      PTCLDY    56  54  93 N6        30.25S
OAK RIDGE      MOCLDY    55  52  89 CALM      30.27F
GATLINBURG     CLOUDY    54  52  94 E3        30.26S VSB 0
MORRISTOWN     FOG       55  55 100 NE3       30.26F VSB 0
JACKSBORO      FOG       52  52 100 CALM      30.30S VSB 1/2
$$

TNZ083-085-099-160500-
SOUTHEAST TENNESSEE

CITY           SKY/WX    TMP DP  RH WIND       PRES   REMARKS
CHATTANOOGA    MOCLDY    55  51  86 S3        30.24S
$$

SKY/WX REPORTED AS FAIR MEANS FEW OR NO CLOUDS BELOW
12 THOUSAND FEET.





USA.gov is the U.S. government's official web portal to all federal, state and local government web resources and services.